OPS 4682 DEB, 15340

Orbit data source: Space-Track

OPS 4682 DEB, 15340 is space debris in LEO originally from a launch on Sat, 03 Apr 1965 UTC launched from the Air Force Western Test Range (AFWTR). Debris objects in space refer to the collection of defunct objects orbiting the Earth. Examples of debris include non-operational satellites, rocket bodies, and fragments generated from explosions, collisions, or faulty payload assembly.

Loading next visibility...
Identifier
15340, 1965-027R
Orbit
LEO
Country
Flag of USUS
Related business
Manufacturer
Unknown
Mission
Spacecraft
Bus & Motor
Unknown
Mass
Unknown
Launch date (UTC)
1965-04-03 (61 years ago)
Launch vehicle
Unknown
Launch site
Air Force Western Test Range (AFWTR)
Object type
Payload
Rocket body
Debris
Shape & HBR
Unknown shape, 0.1 m
Radar Cross Section
Small (<0.1 m²)

Expand to show TLE details & history
Last TLE update: 9 hours ago

TLE from 9 hours ago
0 OPS 4682 DEB
1 15340U 65027R   26104.18559889  .00000377  00000-0  12408-2 0  9993
2 15340  90.2421   4.3201 0033435 192.1344 323.4251 12.99109113975215
Epoch: 2026-04-14T04:27Z
TLE epoch observation values (Epoch: 2026-04-14T04:27:15.744Z)
Latitude
24.6932°
Longitude
-84.75021°
Altitude
1,248.066 km
Speed
7.243 km/s
True Right ascension
12h 17m 43s
True Declination
24° 34' 17"
Sunlit
Object was in full shadow at epoch
Visualization orbit readout
Latitude
Unknown
Longitude
Unknown
Altitude
Unknown
Speed
Unknown
Apparent Right ascension
Unknown
Apparent Declination
Unknown
Sunlit
N/A
Visualization observer readout
Local Sidereal Time
19:59:47
Azimuth
Unknown
Elevation
Unknown
Doppler factor
Unknown
Orbital elements
Apogee altitude
1,288.255 km
Perigee altitude
1,237.16 km
Semi-major axis
7,640.844 km
Eccentricity
0.00334
Inclination
90.2421°
RAAN
4.3201°
Arg. of periapsis
192.1344°
True anomaly
323.19603°
Mean anomaly
323.4251°
Eccentric anomaly
323.31064°
Mean motion
3.24961 °/min
Orbital period
110.78 mins
BSTAR
0.0012408
Loading maneuver chart data...
Computing Atmospheric mass density...
Loading historical data...
Loading historical data...
Loading historical data...
Loading historical data...
Loading historical data...
Loading historical data...
Loading historical data...

Documentation

Showing up to 5 results
|